CET,Max TemperatureF,Mean TemperatureF,Min TemperatureF,Max Dew PointF,MeanDew PointF,Min DewpointF,Max Humidity, Mean Humidity, Min Humidity, Max Sea Level PressureIn, Mean Sea Level PressureIn, Min Sea Level PressureIn, Max VisibilityMiles, Mean VisibilityMiles, Min VisibilityMiles, Max Wind SpeedMPH, Mean Wind SpeedMPH, Max Gust SpeedMPH,PrecipitationIn, CloudCover, Events, WindDirDegrees
2011-10-1,82,70,57,66,59,52,88,71,42,30.24,30.19,30.15,6,6,6,8,3,,0.00,1,,21
2011-10-2,82,70,59,66,60,55,100,73,42,30.18,30.15,30.12,6,6,6,9,3,,0.00,1,,117
2011-10-3,82,70,59,59,54,45,100,63,32,30.18,30.16,30.12,6,6,6,8,3,,0.00,1,,350
2011-10-4,82,68,55,66,54,46,88,65,30,30.18,30.15,30.09,6,6,6,12,4,,0.00,1,,358
2011-10-5,80,68,57,61,56,50,88,66,36,30.12,30.11,30.09,6,6,6,10,3,,0.00,1,,143
2011-10-6,78,68,57,64,58,48,88,71,51,30.12,30.09,30.04,6,6,6,9,3,17,0.00,1,,167
2011-10-7,71,66,60,64,58,46,94,72,52,30.04,29.83,29.68,6,6,4,20,9,37,0.00,2,Rain,191
2011-10-8,69,61,53,46,33,19,67,39,17,29.80,29.77,29.74,6,6,6,17,7,29,0.00,2,,6
2011-10-9,64,55,46,39,32,21,71,44,19,30.04,29.84,29.74,6,6,6,20,8,33,0.00,2,,14
2011-10-10,69,58,46,41,35,25,71,46,20,30.09,30.05,30.04,6,6,6,17,9,25,0.00,1,,354
2011-10-11,80,66,53,63,48,37,88,56,32,30.09,30.06,30.04,6,6,6,8,4,,0.00,2,,6
2011-10-12,80,68,55,66,60,52,94,79,42,30.06,30.05,30.04,6,4,2,7,4,,0.00,3,Fog,199
2011-10-13,75,66,57,63,58,54,94,79,57,30.04,29.99,29.95,6,6,6,7,4,,0.00,3,,139
2011-10-14,77,65,53,61,47,36,94,56,24,30.06,29.98,29.95,6,6,6,13,5,,0.00,3,,36
2011-10-15,69,60,50,48,38,30,66,50,24,30.12,30.08,30.06,6,6,6,15,5,,0.00,1,,27
2011-10-16,69,56,42,52,41,34,88,62,35,30.21,30.15,30.12,6,6,6,12,5,,0.00,2,,38
2011-10-17,66,56,46,52,44,37,88,65,37,30.24,30.20,30.18,6,6,6,13,5,,0.00,1,,3
2011-10-18,68,57,46,57,51,43,94,78,56,30.24,30.20,30.18,6,6,6,13,5,,0.00,3,,115
2011-10-19,68,62,55,61,54,45,94,74,43,30.24,30.19,30.09,6,6,6,21,8,26,0.00,3,Rain,164
2011-10-20,64,58,51,61,58,50,100,89,72,30.06,30.01,29.98,6,6,0,23,13,34,0.00,3,Rain-Thunderstorm,170
2011-10-21,66,58,50,54,50,46,100,81,59,30.12,30.05,30.01,6,6,6,8,5,,0.00,3,,25
2011-10-22,64,54,44,50,45,36,93,73,34,30.12,30.11,30.09,6,6,6,9,4,,0.00,1,,38
2011-10-23,68,56,44,52,47,43,100,76,46,30.12,30.05,30.01,6,6,6,6,3,,0.00,3,,15
2011-10-24,66,58,51,57,52,50,94,81,64,30.01,29.94,29.89,6,6,6,12,3,,0.00,4,,71
2011-10-25,71,62,53,61,54,50,94,74,53,29.92,29.90,29.89,6,6,6,17,5,,0.00,3,,143
2011-10-26,68,62,55,64,59,54,100,87,68,30.04,29.94,29.86,6,6,2,18,12,29,0.00,3,Rain-Thunderstorm,158
2011-10-27,68,60,51,59,55,50,100,86,60,30.12,30.07,30.04,6,6,6,5,2,,0.00,2,,50
2011-10-28,71,61,51,61,55,50,100,87,50,30.24,30.19,30.12,6,6,6,8,4,17,0.00,2,,59
2011-10-29,69,60,50,61,55,50,100,88,56,30.24,30.22,30.18,6,6,6,6,3,,0.00,1,,44
2011-10-30,68,59,50,59,56,50,100,91,68,30.18,30.13,30.09,6,6,4,6,2,,0.00,2,,35
2011-10-31,68,60,51,57,55,50,100,85,64,30.12,30.10,30.06,6,6,5,7,2,,0.00,4,,8